Tracking 22836 objects as of 18-Apr-2021
HD Live streaming from Space Station
objects crossing your sky now

STARLINK-2012

Track STARLINK-2012 now!
10-day predictions
STARLINK-2012 is classified as:


NORAD ID: 47635
Int'l Code: 2021-012R
Perigee: 355.0 km
Apogee: 358.3 km
Inclination: 53.0 °
Period: 91.5 minutes
Semi major axis: 6727 km
RCS: Unknown
Launch date: February 16, 2021
Source: United States (US)
Launch site: AIR FORCE EASTERN TEST RANGE (AFETR)
aabbcc
Your satellite tracking list
Your tracking list is empty




NASA's NSSDC Master Catalog

Two Line Element Set (TLE):
1 47635U 21012R   21107.91667824 -.00052029  00000-0 -36695-3 0  9997
2 47635  53.0457 159.1089 0002459  20.2812 217.6790 15.73294178  1773
Source of the keplerian elements: AFSPC